Weather History for Batman, Turkey

Change the Weather History Date:

Thursday, August 8, 2013

  Actual Average (LTCC) Record (LTCC)
Temperature  
Mean Temperature 80 °F -  
Max Temperature 100 °F 100 °F 109 °F (2003)
Min Temperature 60 °F 71 °F 60 °F (2002)
Cooling Degree Days 15    
Growing Degree Days 30 (Base 50)    
Moisture  
Dew Point 44 °F    
Average Humidity 31    
Maximum Humidity 63    
Minimum Humidity 11    
Precipitation  
Precipitation 0.00 in - - ()
Sea Level Pressure  
Sea Level Pressure 29.63 in    
Wind  
Wind Speed 5 mph ()    
Max Wind Speed 14 mph    
Max Gust Speed -    
Averages and records for this station are not official NWS values.
T = Trace of Precipitation, MM = Missing Value Source: Averaged Metar Reports

Daily Weather History Graph

Daily Weather History Graph

Search for Another Location

Airport:

Trip Planner

Search our weather history database for the weather conditions in past years. The results will help you decide how hot, cold, wet, or windy it might be!

Date:

Astronomy

Aug. 08, 2013 Rise Set
Actual Time 5:24 AM EEST 7:17 PM EEST
Civil Twilight 4:56 AM EEST 7:45 PM EEST
Nautical Twilight 4:21 AM EEST 8:20 PM EEST
Astronomical Twilight 3:44 AM EEST 8:57 PM EEST
Moon 6:47 AM EEST (8/8) 7:47 PM EEST (8/8)
Length of Visible Light 14h 49m
Length of Day
13h 52m
New Moon, 2% of the Moon is Illuminated
Aug 8
New Moon
Aug 14
First Quarter
Aug 21
Full
Aug 28
Last Quarter
Sep 5
New

Hourly Weather History & Observations

Time (EEST) Temp. Dew Point Humidity Pressure Visibility Wind Dir Wind Speed Gust Speed Precip Events Conditions
12:20 AM 71.6 °F 44.6 °F 38% 29.62 in - NNW 3.5 mph - N/A   Clear
12:50 AM 75.2 °F 41.0 °F 29% 29.62 in - SSW 6.9 mph - N/A   Clear
1:20 AM 71.6 °F 42.8 °F 35% 29.62 in - South 5.8 mph - N/A   Clear
1:50 AM 73.4 °F 41.0 °F 31% 29.62 in - Variable 1.2 mph - N/A   Clear
2:20 AM 64.4 °F 48.2 °F 56% 29.65 in - North 4.6 mph - N/A   Clear
2:50 AM 64.4 °F 46.4 °F 52% 29.65 in - NE 4.6 mph - N/A   Clear
3:20 AM 66.2 °F 46.4 °F 49% 29.65 in - East 2.3 mph - N/A   Clear
3:50 AM 62.6 °F 50.0 °F 63% 29.65 in - Calm Calm - N/A   Clear
4:20 AM 66.2 °F 48.2 °F 52% 29.65 in - Variable 2.3 mph - N/A   Clear
4:50 AM 62.6 °F 44.6 °F 52% 29.65 in - Variable 1.2 mph - N/A   Clear
5:20 AM 60.8 °F 48.2 °F 63% 29.65 in - North 2.3 mph - N/A   Clear
5:50 AM 62.6 °F 46.4 °F 55% 29.65 in - NNE 1.2 mph - N/A   Clear
6:20 AM 64.4 °F 50.0 °F 59% 29.65 in - North 2.3 mph - N/A   Clear
6:50 AM 68.0 °F 48.2 °F 49% 29.68 in - NNE 3.5 mph - N/A   Clear
7:20 AM 73.4 °F 44.6 °F 36% 29.68 in - Calm Calm - N/A   Clear
7:50 AM 77.0 °F 44.6 °F 32% 29.68 in - South 4.6 mph - N/A   Clear
8:20 AM 78.8 °F 46.4 °F 32% 29.68 in - South 5.8 mph - N/A   Clear
8:50 AM 80.6 °F 46.4 °F 30% 29.68 in - SW 5.8 mph - N/A   Clear
9:20 AM 82.4 °F 46.4 °F 28% 29.68 in - SW 4.6 mph - N/A   Clear
9:50 AM 84.2 °F 44.6 °F 25% 29.68 in - SSW 6.9 mph - N/A   Clear
10:20 AM 87.8 °F 48.2 °F 25% 29.68 in - South 5.8 mph - N/A   Clear
10:50 AM 91.4 °F 44.6 °F 20% 29.65 in - SSW 6.9 mph - N/A   Clear
11:20 AM 93.2 °F 41.0 °F 16% 29.65 in - South 6.9 mph - N/A   Clear
11:50 AM 95.0 °F 44.6 °F 18% 29.65 in - South 5.8 mph - N/A   Clear
12:20 PM 96.8 °F 39.2 °F 14% 29.65 in - SSW 9.2 mph - N/A   Clear
12:50 PM 98.6 °F 39.2 °F 13% 29.65 in - South 10.4 mph - N/A   Clear
1:20 PM 98.6 °F 39.2 °F 13% 29.62 in - SSW 9.2 mph - N/A   Clear
1:50 PM 98.6 °F 42.8 °F 15% 29.62 in - SSW 10.4 mph - N/A   Clear
2:20 PM 100.4 °F 41.0 °F 13% 29.62 in - SSW 11.5 mph - N/A   Clear
2:50 PM 100.4 °F 35.6 °F 11% 29.59 in - SSW 9.2 mph - N/A   Clear
3:20 PM 100.4 °F 39.2 °F 12% 29.59 in - SSW 12.7 mph - N/A   Clear
3:50 PM 98.6 °F 41.0 °F 14% 29.59 in - SSW 13.8 mph - N/A   Clear
4:20 PM 98.6 °F 39.2 °F 13% 29.59 in - SSW 13.8 mph - N/A   Clear
4:50 PM 98.6 °F 35.6 °F 11% 29.59 in - SW 11.5 mph - N/A   Clear
5:20 PM 96.8 °F 37.4 °F 13% 29.59 in - SW 10.4 mph - N/A   Clear
5:50 PM 95.0 °F 39.2 °F 14% 29.59 in - SW 9.2 mph - N/A   Clear
6:20 PM 95.0 °F 41.0 °F 15% 29.59 in - SW 8.1 mph - N/A   Clear
6:50 PM 87.8 °F 48.2 °F 25% 29.59 in - SSW 5.8 mph - N/A   Clear
7:20 PM 84.2 °F 46.4 °F 27% 29.59 in - SW 5.8 mph - N/A   Clear
7:50 PM 82.4 °F 46.4 °F 28% 29.59 in - SSW 5.8 mph - N/A   Clear
8:20 PM 80.6 °F 46.4 °F 30% 29.59 in - South 6.9 mph - N/A   Clear
8:50 PM 80.6 °F 42.8 °F 26% 29.59 in - South 6.9 mph - N/A   Clear
9:20 PM 80.6 °F 42.8 °F 26% 29.62 in - South 6.9 mph - N/A   Clear
9:50 PM 80.6 °F 42.8 °F 26% 29.62 in - South 4.6 mph - N/A   Clear
10:20 PM 78.8 °F 44.6 °F 30% 29.62 in - Calm Calm - N/A   Clear
10:50 PM 71.6 °F 50.0 °F 46% 29.62 in - NNE 6.9 mph - N/A   Clear
11:20 PM 69.8 °F 51.8 °F 53% 29.62 in - NNE 5.8 mph - N/A   Clear
11:50 PM 69.8 °F 51.8 °F 53% 29.65 in - NNE 9.2 mph - N/A   Clear